Location: Pilipovskiye Korichintsy
(49.1833°N, 27.4667°E)
Time: 00:53:18
(UTC+00:00)

Daily predictions for brighter satellites

Satellite Brightness Start Highest point End
(mag) Time Altitude Azimuth Time Altitude Azimuth Time Altitude Azimuth
Abrixas rocket 1.7 00:03:46 24° W 00:05:18 66° S 00:08:10 10° ESE
SL-8 R/B 3.8 00:08:40 21° SW 00:11:44 59° SSE 00:16:27 10° E
Cosmos 2016 Rocket 4.0 00:09:03 20° S 00:13:30 84° W 00:19:47 10° N
SL-16 R/B 2.7 00:11:55 18° S 00:16:34 56° W 00:22:45 10° NNW
Lacrosse 5 2.8 00:11:41 10° W 00:16:36 46° NNW 00:21:30 10° NE
Meteor 1-5 Rocket 4.3 00:13:46 19° S 00:17:57 86° E 00:23:52 10° NNE
Okean 3 3.4 00:15:05 10° NNW 00:19:18 76° W 00:22:19 18° S
Meteor 2-4 Rocket 4.0 00:16:09 10° NNW 00:21:59 58° W 00:26:29 17° S
Cosmos 1864 Rocket 4.4 00:17:41 18° S 00:22:23 86° W 00:28:33 10° N
BREEZE-M DEB (TANK) 2.9 00:18:01 10° W 00:23:29 56° S 00:26:21 10° ESE
Cosmos 2278 3.9 00:19:14 10° NNW 00:25:00 77° ENE 00:30:43 10° SSE
Meteor 1-11 Rocket 3.9 00:21:40 15° S 00:26:14 71° E 00:31:45 10° NNE
SL-16 R/B 4.4 00:22:28 10° NNW 00:27:23 29° NE 00:32:17 10° ESE
Cosmos 1190 Rocket 4.0 00:26:21 20° SSW 00:30:02 76° WNW 00:35:19 10° NNE
Cosmos 1869 Rocket 4.1 00:27:34 21° SW 00:30:09 45° WNW 00:34:21 10° N
Cosmos 1536 3.1 00:27:10 16° S 00:30:16 65° E 00:34:19 10° NNE
Cosmos 1954 Rocket 4.2 00:28:04 17° S 00:32:06 71° ESE 00:37:25 10° NNE
Cosmos 1697 Rocket 2.7 00:28:04 10° NW 00:33:39 62° WSW 00:39:09 10° SSE
H-2A R/B 4.3 00:30:21 10° ESE 00:33:58 26° ENE 00:37:33 10° N
Cosmos 921 Rocket 3.0 00:30:45 10° NNW 00:35:12 86° WSW 00:39:32 10° SSE
Cosmos 1437 Rocket 3.7 00:32:21 10° NNW 00:35:58 32° W 00:38:00 20° SW
Cosmos 2221 Rocket 3.7 00:34:08 10° NNW 00:38:29 57° W 00:42:00 15° S
SeaSat 1 2.5 00:36:09 10° NNE 00:41:07 81° WNW 00:45:02 16° SW
IRS-1D 3.4 00:39:47 10° NNE 00:44:46 87° WNW 00:49:02 14° SSW
CZ-2D R/B 2.7 00:39:47 10° N 00:44:54 48° WNW 00:49:08 15° SW
Cosmos 1378 Rocket 4.1 00:40:42 10° N 00:45:05 62° ENE 00:49:28 10° SSE
CZ-4B R/B 3.5 00:40:09 10° NNE 00:45:13 71° WNW 00:49:15 15° SSW
Cosmos 2082 Rocket 2.4 00:40:40 15° SSW 00:45:29 69° ESE 00:51:10 10° NNE
Aureole 1 Rocket 3.6 00:43:26 17° SSW 00:47:06 73° WNW 00:53:22 10° NNE
Cosmos 1763 Rocket 4.0 00:43:42 10° NNW 00:48:57 64° ENE 00:54:12 10° SE
Cosmos 1833 Rocket 2.8 00:44:54 16° SW 00:49:26 74° WNW 00:55:05 10° NNE
COBE Rocket 3.9 00:44:56 10° S 00:49:57 72° WSW 00:54:51 10° NNW
Meteor 1-23 Rocket 4.3 00:44:40 10° NNW 00:50:27 89° WSW 00:56:15 10° S
COSMOS 2406 3.8 00:49:39 14° SW 00:54:30 50° NW 01:00:08 10° NNE
Cosmos 1900 4.5 00:50:30 15° SSW 00:54:32 71° ESE 00:59:31 10° NE
Cosmos 1140 Rocket 4.0 00:52:12 15° SW 00:56:25 51° WNW 01:01:33 10° NNE
CBERS-1 4.1 00:52:53 10° N 00:58:01 70° WNW 01:02:41 12° SSW
Cosmos 407 Rocket 4.4 00:55:13 13° SW 00:59:40 40° WNW 01:04:43 10° NNE
Cosmos 2360 4.4 00:54:30 10° NW 01:00:05 52° WSW 01:05:36 10° S
Cosmos 468 Rocket 4.1 00:54:44 10° NNW 01:00:05 88° ENE 01:05:25 10° SSE
ERS-2 3.7 00:57:12 10° SE 01:00:35 37° ENE 01:03:59 10° N
Cosmos 2233 Rocket 4.1 00:55:03 12° SSW 01:00:53 71° WNW 01:07:10 10° N
Meteor 1-28 Rocket 3.2 00:57:44 10° SSE 01:01:27 86° ENE 01:05:13 10° NNW
CZ-2D R/B 4.4 01:02:47 10° NNE 01:07:04 50° E 01:11:13 10° S
Cosmos 2322 Rocket 3.6 01:03:36 10° NNW 01:08:59 43° NE 01:14:23 10° SE
Cosmos 1674 Rocket 3.6 01:05:47 10° NNW 01:10:05 59° W 01:14:19 10° S
Cosmos 1271 Rocket 3.7 01:06:54 10° N 01:10:35 48° ENE 01:14:13 10° SSE
Cosmos 1850 Rocket 4.4 01:06:44 10° S 01:12:00 65° ESE 01:17:18 10° NNE
Cosmos 1066 Rocket 4.4 01:06:41 10° NNW 01:12:29 61° W 01:18:13 10° S
Cosmos 1666 3.6 01:13:11 12° SW 01:16:13 33° WNW 01:19:39 10° N
Cosmos 841 Rocket 4.2 01:11:22 10° NNW 01:16:29 60° ENE 01:21:36 10° SE
Cosmos 540 Rocket 4.2 01:11:52 10° NNW 01:16:58 57° ENE 01:22:02 10° SE
IRS-1C 4.2 01:11:49 10° NNE 01:17:10 76° WNW 01:22:29 10° SSW
ARIANE 5 R/B 2.6 01:12:04 10° NNE 01:17:11 86° ESE 01:22:20 10° SSW
ADEOS II 2.5 01:18:06 10° N 01:23:13 52° WNW 01:28:18 10° SW
Cosmos 1818 3.6 01:19:26 10° NW 01:24:52 70° SW 01:30:16 10° SSE
Resurs 1-4 Rocket 3.6 01:23:13 10° N 01:27:20 23° WNW 01:31:25 10° WSW
SL-08 R/B 3.7 01:24:02 10° S 01:28:35 45° W 01:33:16 10° NNW
Spot 4 Rocket 4.2 01:24:00 10° NNE 01:29:11 80° ESE 01:34:21 10° SSW
CENTAUR R/B 4.4 01:24:41 10° SSE 01:29:17 24° ESE 01:34:27 10° ENE
Cosmos 1741 Rocket 4.1 01:24:36 10° SSW 01:29:49 84° ESE 01:35:05 10° NNE
Cosmos 1544 3.5 01:27:14 10° S 01:30:46 62° E 01:34:20 10° NNE
Cosmos 1743 2.7 01:28:06 10° SSW 01:31:54 68° WNW 01:35:44 10° N
Cosmos 1733 Rocket 4.0 01:29:46 10° SW 01:33:38 32° WNW 01:37:33 10° N
Cosmos 1908 Rocket 3.6 01:29:48 10° SSW 01:34:17 76° W 01:38:46 10° N
ISS -3.4 01:31:22 10° WNW 01:34:35 43° SSW 01:37:48 10° SE
Landsat 5 3.3 01:33:37 10° SSE 01:37:31 87° ENE 01:41:23 10° NNW
USA 215 4.3 01:32:39 10° E 01:38:56 49° NNE 01:45:12 10° WNW
Cosmos 2360 Rocket 3.8 01:35:50 10° NNW 01:41:15 42° NE 01:46:37 10° ESE
